Location: Rounton
(54.4000°N, 1.3500°W)
Time: 16:09:14
(UTC+00:00)

Tiros 1 - Pass Details

Date: 04 December 2021
Orbit: 629 x 664 km, 48.4° (Epoch: 19 January)

Event Time Altitude Azimuth Distance (km) Brightness Sun altitude
Rises 18:46:27 0° 216° (SW) 2,917 11.1 -25.3°
Reaches altitude 10° 18:49:11 10° 201° (SSW) 2,017 9.9 -25.7°
Enters shadow 18:51:00 18° 181° (S) 1,574 9.1 -25.9°
